This is the latest recevied weather packets stored in our database for station/object XQ6AK-15. If no packets are shown the sender has not sent any weather packets the latest 10 day(s).
| Time | Temp. | Humidity | Pressure | Rain* | Wind** | Luminosity | Snow |
|---|---|---|---|---|---|---|---|
| 1778285941 | 6.11° C | 92% | 1025.8 hPa | 0 mm | - | 0 W/m² | - |
| 1778285636 | 6.11° C | 91% | 1025.6 hPa | 0 mm | - | 0 W/m² | - |
| 1778285334 | 6.67° C | 90% | 1025.5 hPa | 0 mm | - | 0 W/m² | - |
| 1778285032 | 6.67° C | 90% | 1025.5 hPa | 0 mm | - | 0 W/m² | - |
| 1778284728 | 6.67° C | 89% | 1025.7 hPa | 0 mm | - | 0 W/m² | - |
| 1778284425 | 6.67° C | 88% | 1025.4 hPa | 0 mm | - | 0 W/m² | - |
| 1778284122 | 7.22° C | 87% | 1025.5 hPa | 0 mm | - | 0 W/m² | - |
| 1778283818 | 7.22° C | 87% | 1025.4 hPa | 0 mm | - | 0 W/m² | - |
| 1778283517 | 7.78° C | 85% | 1025.2 hPa | 0 mm | - | 0 W/m² | - |
| 1778283216 | 7.22° C | 85% | 1025.3 hPa | 0 mm | - | 0 W/m² | - |
| 1778282912 | 7.78° C | 85% | 1025.1 hPa | 0 mm | - | 0 W/m² | - |
| 1778282609 | 7.78° C | 84% | 1025.1 hPa | 0 mm | - | 0 W/m² | - |
| 1778282307 | 7.78° C | 84% | 1024.9 hPa | 0 mm | - | 0 W/m² | - |
| 1778282003 | 7.78° C | 84% | 1025 hPa | 0 mm | - | 0 W/m² | - |
| 1778281700 | 7.78° C | 85% | 1024.8 hPa | 0 mm | - | 0 W/m² | - |
| 1778281396 | 7.22° C | 87% | 1024.9 hPa | 0 mm | - | 0 W/m² | - |
| 1778281095 | 7.78° C | 85% | 1024.7 hPa | 0 mm | - | 0 W/m² | - |
| 1778280790 | 7.78° C | 88% | 1024.8 hPa | 0 mm | - | 0 W/m² | - |
| 1778280489 | 7.78° C | 84% | 1024.6 hPa | 0 mm | - | 0 W/m² | - |
| 1778280186 | 7.78° C | 84% | 1024.5 hPa | 0 mm | - | 0 W/m² | - |
| 1778279883 | 8.33° C | 84% | 1024.2 hPa | 0 mm | - | 0 W/m² | - |
| 1778279581 | 8.33° C | 85% | 1024.2 hPa | 0 mm | - | 0 W/m² | - |
| 1778279278 | 8.33° C | 85% | 1024 hPa | 0 mm | - | 0 W/m² | - |
| 1778278975 | 8.33° C | 84% | 1023.9 hPa | 0 mm | - | 0 W/m² | - |
| 1778278671 | 8.33° C | 84% | 1024 hPa | 0 mm | - | 0 W/m² | - |
* Rain latest hour (hover to see other rain measurements)
** Current wind speed in m/s (hover to see current wind gust speed)